Location: *
(50.3194°N, 7.1067°E)
Time: 21:10:23
(UTC+00:00)

Cosmos 2082 - Pass Details

Date: 22 September 2019
Orbit: 834 x 855 km, 71.0° (Epoch: 13 October)

Event Time Altitude Azimuth Distance (km) Brightness Sun altitude
Rises 19:31:14 0° 201° (SSW) 3,414 6.8 -19.5°
Reaches altitude 10° 19:33:41 10° 200° (SSW) 2,482 6.1 -19.8°
Maximum altitude 19:39:22 75° 116° (ESE) 888 3.6 -20.6°
Drops below altitude 10° 19:45:06 10° 32° (NNE) 2,494 6.1 -21.4°
Sets 19:47:33 0° 31° (NNE) 3,431 6.9 -21.8°
